Showing default

IRIDE-MS2-HEO-4, 64582

Orbit data source: Space-Track

IRIDE-MS2-HEO-4, 64582 is an Italian payload satellite in SSO that was launched on Mon, 23 Jun 2025 UTC via an FALCON 9 launch vehicle from the Air Force Western Test Range (AFWTR). Payload-class satellites include a variety of spacecraft equipped with specific instruments for various scientific and technological missions. These include communications satellites like Starlink; space stations such as the ISS; scientific satellites like the Hubble; Earth observation satellites from companies like Planet Labs, Umbra, and HawkEye 360; GPS; miniature CubeSats for education and research; and military/defense satellites.

Loading next visibility...
Identifier
64582, 2025-135BG
Orbit
SSO
Country
Flag of ITIT
Related business
Manufacturer
ArgoTec
Mission
Operational Civil Imaging
Bus & Motor
HAWK, Unknown motor
Mass
65 kg wet, 65 kg dry
Launch date (UTC)
2025-06-23 (10 months ago)
Launch vehicle
FALCON 9
Launch site
Air Force Western Test Range (AFWTR)
Object type
Payload
Rocket body
Debris
Shape & HBR
Box + 2 Pan, 3.0 m
Radar Cross Section
0.683 m², Medium (>0.1 m² and < 1m²)

Expand to show TLE details & history
Last TLE update: 4 hours ago

TLE from 4 hours ago
0 IRIDE-MS2-HEO-4
1 64582U 25135BG  26120.22970198  .00001812  00000-0  17977-3 0  9996
2 64582  97.7664 235.2500 0004145 129.6182 230.5403 14.92986121 46747
Epoch: 2026-04-30T05:30Z
TLE epoch observation values (Epoch: 2026-04-30T05:30:46.251Z)
Latitude
-0.00008°
Longitude
-65.622°
Altitude
593.51 km
Speed
7.562 km/s
True Right ascension
15h 41m 00s
True Declination
0° 00' 00"
Sunlit
Object was in full shadow at epoch
Visualization orbit readout
Latitude
Unknown
Longitude
Unknown
Altitude
Unknown
Speed
Unknown
Apparent Right ascension
Unknown
Apparent Declination
Unknown
Sunlit
N/A
Visualization observer readout
Local Sidereal Time
16:39:21
Azimuth
Unknown
Elevation
Unknown
Doppler factor
Unknown
Orbital elements
Apogee altitude
588.535 km
Perigee altitude
582.762 km
Semi-major axis
6,963.785 km
Eccentricity
0.00041
Inclination
97.7664°
RAAN
235.25°
Arg. of periapsis
129.6182°
True anomaly
230.50364°
Mean anomaly
230.5403°
Eccentric anomaly
230.52197°
Mean motion
3.73487 °/min
Orbital period
96.39 mins
BSTAR
0.00017977
Loading maneuver chart data...
Computing Atmospheric mass density...
Loading historical data...
Loading historical data...
Loading historical data...
Loading historical data...
Loading historical data...
Loading historical data...
Loading historical data...

Documentation

Showing up to 5 results
|